Погода в Монровии

Либерия     6°20′11″N   10°44′16″W
темп.,
°C
ветер,
м/с
пор.,
м/с
влажн.,
%
обл.,
%
осадки,
мм/ч
давл.,
гПа
погр.,
м
13 августа, сб
сб1300:00+25юз5783100 1.5 1016527
03:00+25юз5783100 0.1 1014509
06:00+24юз468397 0.3 1015352
09:00+25юз5783100 0.6 1016501
12:00+26юз5676100 2.9 1016829
15:00+26юз5677100 0.3 1015804
18:00+26зюз5677100 0.4 1015801
21:00+25зюз5679100 0.2 1016561
14 августа, вс
вс1400:00+25зюз5680100 0.6 1017540
03:00+24зюз4682100 0.6 1014512
06:00+25зюз4681100 1.3 1014511
09:00+24з458798 1.9 1016387
12:00+26зюз557636 2.8 1015821
15:00+26зюз567398 0.4 1013975
18:00+25зюз577892 0.5 1012747
21:00+25зюз5783100 0.9 1014516
15 августа, пн
пн1500:00+25з5784100 1.7 1014512
03:00+24з5788100 1.8 1012500
06:00+24з4690100 7.3 1012398
09:00+24з459275 5.3 1013307
12:00+24зюз459098 9.9 1013450
15:00+25зюз688685 2.4 1011684
18:00+25юз6988100 6.3 1011660
21:00+24юз7988100 3.4 1013703
16 августа, вт
вт1600:00+24юз7989100 8.4 1013658
03:00+24юз7991100 5.5 1010665
06:00+23ююз71196100 34.4 1010784
09:00+24ююз91394100 28.8 1012882
12:00+24ююз91291100 38.0 1013915
15:00+23ююз81192100 8.7 1012775
18:00+24ю81089100 14.3 1012796
21:00+24ю71085100 1.4 1014747
17 августа, ср
ср1700:00+24ю7984100 2.1 1014668
03:00+24ююз6883100 0.3 1012626
06:00+24ю688379 0.6 1013596
09:00+25ю678459 0.6 1015739
12:00+25ю778258 2.4 1015811
15:00+26ю677743 0.4 1013845
18:00+25ю577977 0.6 1013734
21:00+25ю5781100 0.1 1015570